Theta_e
343 349 350 351 366 365 371 368 361 357 355 350 351 353 356 355 355 354 343 344 344 348 350 351 350 350 350 351 345 351 350 344 350 351 351 352 352 351 352 352 352 353 351 349 350 350 350 349 347
344 350 352 358 369 372 369 362 363 355 354 349 354 355 357 357 346 343 344 348 347 349 350 351 349 350 350 346 348 348 351 351 349 348 349 351 352 352 352 352 350 351 351 349 350 349 349 349 348
343 349 358 365 367 368 368 360 357 356 352 355 358 354 355 352 343 344 346 349 349 350 349 351 345 345 347 347 347 351 351 351 350 351 350 351 352 352 353 351 351 351 351 351 350 346 346 347 342
347 350 356 367 367 361 361 357 356 357 355 354 355 356 346 345 343 344 349 349 350 351 350 348 341 345 347 351 346 352 351 351 351 351 350 350 353 351 351 352 352 352 351 351 349 347 345 344 339
352 357 363 365 360 358 356 356 356 358 358 357 353 351 347 343 343 347 349 350 350 351 351 350 342 343 350 347 351 352 352 351 349 349 351 351 352 353 352 352 352 352 352 350 348 346 346 344 341
357 353 356 362 360 357 357 356 356 359 356 351 347 347 347 343 344 345 348 351 349 351 350 349 345 347 347 350 351 351 351 349 349 350 351 352 352 351 351 352 352 352 351 347 346 346 344 343 340
352 354 357 357 359 355 361 357 357 359 357 355 352 355 346 342 344 345 351 350 349 349 351 350 349 351 349 346 352 347 344 345 349 349 346 348 348 349 350 351 350 346 345 344 344 345 343 341 341
353 354 356 358 356 355 358 354 356 358 358 351 350 355 350 343 344 346 352 351 350 350 351 351 350 349 344 351 353 341 343 345 347 347 345 344 345 346 346 345 347 346 344 344 344 344 341 339 342
355 363 364 357 356 353 353 355 355 353 355 353 352 349 345 343 344 349 351 351 351 351 350 351 348 344 343 355 352 340 344 346 346 347 345 347 350 348 347 343 344 345 343 343 343 342 342 340 341
360 361 362 352 348 351 353 355 357 357 357 355 350 347 343 342 344 348 349 349 351 351 351 350 344 342 344 350 347 338 343 345 344 344 342 347 348 347 345 344 344 344 343 343 344 343 344 343 343
354 362 355 352 347 347 348 347 352 358 360 353 350 346 342 343 348 348 348 351 351 350 351 348 342 342 341 341 335 335 339 343 347 345 338 344 347 348 348 344 343 344 343 345 347 348 347 347 345
351 350 352 350 347 347 347 346 358 356 357 350 345 343 343 348 348 348 348 351 351 351 350 346 342 346 344 334 331 334 341 348 350 344 343 342 344 346 345 348 346 348 348 349 349 348 348 347 347
340 346 347 347 346 345 344 348 350 354 353 348 343 343 345 347 348 348 349 350 350 350 349 344 345 348 347 338 336 341 346 349 349 340 345 348 345 344 340 342 345 348 349 349 347 349 347 345 345
339 340 344 345 347 347 347 347 356 357 352 350 346 344 345 348 348 348 349 349 348 349 348 344 345 348 348 346 341 345 345 346 349 350 348 351 348 349 346 347 348 349 348 351 349 348 347 346 342
330 339 341 342 348 350 346 350 363 356 353 352 350 348 349 349 348 349 349 349 348 347 346 346 346 348 348 348 345 347 348 347 347 350 350 352 351 349 349 349 349 350 349 351 351 348 348 345 344
332 333 337 337 348 348 347 354 359 355 355 355 353 351 350 350 349 347 348 348 348 348 344 344 346 346 349 348 348 350 349 347 348 350 348 351 350 350 348 350 350 351 351 349 349 349 347 345 344
325 332 335 337 348 350 351 358 359 356 355 355 353 352 351 350 348 348 347 347 347 348 346 344 346 346 350 350 349 346 347 347 346 349 349 347 349 352 348 349 350 348 351 352 349 348 345 342 343
326 333 334 336 346 350 353 354 357 356 357 357 354 353 351 351 349 348 348 347 347 347 346 345 345 346 350 347 346 344 347 345 348 347 346 346 345 346 351 350 350 350 350 352 349 348 347 347 346
327 330 334 336 337 349 353 353 355 357 355 357 356 356 353 351 348 348 348 347 347 347 347 346 346 345 346 346 347 345 346 347 347 348 346 347 347 344 346 348 350 350 350 350 349 349 344 341 339
325 329 333 335 336 336 350 353 352 354 353 354 354 351 353 352 350 348 348 348 347 346 348 347 347 345 344 344 344 345 344 346 347 347 345 348 348 349 351 348 352 352 351 352 352 351 346 342 337
326 327 331 334 334 333 351 355 352 350 347 348 352 351 350 349 351 350 348 349 349 346 347 347 348 346 347 346 345 344 343 343 348 349 345 347 349 351 351 352 351 353 351 352 349 349 348 344 337
327 327 330 333 333 336 335 362 354 352 349 352 351 352 350 348 345 349 349 349 349 347 347 346 348 348 348 348 347 346 348 350 349 349 345 344 350 351 351 351 353 352 353 352 349 350 350 345 338
328 327 329 331 332 332 334 347 354 352 352 352 352 351 347 345 346 345 349 350 349 347 346 347 349 349 349 349 349 348 349 351 351 349 346 345 348 351 350 348 354 350 352 353 351 351 347 346 343
328 328 329 330 327 332 333 332 346 356 352 350 349 349 347 340 342 343 347 348 348 347 347 347 350 350 350 350 350 349 348 348 351 349 348 345 344 347 349 347 355 353 349 353 352 351 352 351 344
331 327 331 330 330 331 329 329 331 348 349 348 347 349 346 341 341 344 345 345 346 348 348 346 350 352 351 350 351 349 349 348 347 347 347 348 344 345 346 348 355 355 353 351 352 352 353 350 349
330 330 328 332 329 329 324 328 328 341 344 346 345 346 345 343 343 344 345 345 347 348 349 348 348 351 352 351 351 351 350 349 349 348 348 345 345 345 344 347 352 356 356 353 353 352 353 353 350
331 331 323 320 320 322 323 324 325 326 341 346 347 346 345 343 343 345 345 346 346 348 349 350 349 349 352 352 352 352 351 350 349 349 347 346 347 343 346 347 352 353 356 356 355 351 355 355 353
330 323 325 317 325 324 322 323 326 324 323 335 343 347 345 343 345 346 346 346 346 348 349 351 350 349 351 353 352 351 352 352 351 349 348 346 345 349 348 351 352 354 353 356 356 352 353 354 355
325 328 324 322 318 323 323 324 322 322 322 323 333 345 345 346 347 348 346 346 346 346 349 351 352 351 351 352 354 353 351 350 354 355 350 347 348 350 352 352 354 354 354 354 357 355 352 353 357
330 321 321 324 320 318 320 325 326 324 323 324 324 340 344 348 349 348 346 346 345 345 347 350 352 352 352 352 353 355 354 353 350 352 357 354 350 347 348 355 357 354 353 355 355 356 354 353 355
Wind_Speed
13 13 9 2 1 1 2 3 3 9 6 9 16 4 9 5 2 3 24 23 28 26 25 25 25 22 20 20 20 19 19 18 17 17 17 17 16 16 15 14 15 14 13 12 11 11 11 11 11
17 12 2 1 2 0 2 4 5 6 5 16 8 12 4 4 5 10 15 29 28 28 28 27 25 23 20 19 19 19 18 16 15 16 16 16 15 15 15 13 14 14 12 10 9 10 10 10 10
17 8 1 1 1 2 2 4 5 10 15 9 5 8 4 4 12 16 28 31 30 30 29 26 25 23 19 18 18 18 16 15 14 16 15 14 14 14 14 13 13 13 12 10 9 9 9 10 11
8 4 2 1 2 3 3 2 10 11 11 9 13 8 4 6 25 17 35 31 31 31 29 25 24 22 19 17 18 16 15 14 15 15 14 14 14 13 12 12 11 11 10 9 8 7 7 8 10
4 1 1 2 3 2 7 5 11 10 6 9 3 5 9 6 18 38 33 30 33 32 28 25 24 23 20 18 17 16 15 14 14 13 13 14 14 13 12 11 11 10 9 8 7 6 6 7 9
1 1 3 3 4 5 7 5 11 9 9 15 15 13 5 12 30 28 24 34 33 33 29 25 24 22 19 17 17 15 13 13 13 12 11 12 13 13 12 11 11 10 9 8 7 6 6 7 10
3 2 3 4 7 7 6 13 11 12 11 7 16 8 6 17 25 24 31 32 32 32 30 27 24 21 18 18 15 14 13 13 12 11 11 11 11 11 11 11 10 10 9 8 6 7 7 7 10
4 2 2 5 6 6 7 6 9 11 5 16 13 8 12 26 30 22 31 30 32 32 29 29 26 23 21 18 15 13 13 13 12 11 12 11 10 9 9 10 9 8 7 7 6 7 8 7 9
2 1 3 3 9 6 7 7 7 7 15 4 8 10 26 37 30 26 28 26 28 29 29 28 26 23 22 17 15 13 14 13 12 12 13 12 12 10 9 7 8 6 5 5 5 5 7 8 7
6 4 7 8 7 8 13 8 10 8 10 12 18 21 34 32 24 24 24 23 26 28 29 27 25 23 22 19 16 15 15 15 14 12 9 10 11 10 8 6 5 5 4 4 4 4 5 7 7
8 8 10 9 5 2 2 6 6 16 7 15 26 26 29 27 24 23 23 24 27 31 30 27 25 23 22 20 18 16 16 16 14 10 9 10 9 11 10 8 7 6 3 2 2 2 2 4 7
6 13 14 15 5 3 7 5 13 11 8 18 25 32 30 23 22 24 24 28 28 29 31 28 25 25 22 20 20 19 19 17 13 13 14 13 11 10 9 9 7 7 5 3 1 2 2 2 4
15 19 14 17 9 3 9 7 3 4 20 20 22 25 23 20 23 23 22 27 28 29 31 30 28 27 25 22 21 22 21 18 15 15 11 6 10 9 7 7 9 8 8 5 3 3 3 3 6
7 19 22 16 6 2 3 5 5 16 25 23 25 24 19 20 24 23 24 28 29 31 33 33 31 30 28 24 21 21 19 18 17 17 15 7 7 7 10 9 7 8 4 7 5 4 8 2 7
20 18 15 11 15 10 6 4 9 15 14 23 21 20 20 16 26 24 30 30 32 31 35 36 35 33 31 29 23 19 17 21 21 21 16 11 9 9 7 5 8 7 5 5 8 5 2 5 4
9 8 11 9 16 8 11 7 16 22 25 24 24 20 19 18 24 23 28 31 31 31 33 38 35 37 33 29 21 16 12 19 20 19 17 15 11 9 8 6 8 7 7 7 9 6 3 4 3
5 9 6 5 19 10 4 11 15 18 23 26 23 22 21 18 21 26 31 30 32 34 34 42 36 39 35 31 26 19 14 16 17 19 19 17 15 12 10 8 10 6 6 9 10 7 5 5 3
6 5 6 10 14 10 12 14 23 23 22 23 22 22 23 25 24 29 33 34 32 34 40 43 40 42 40 33 28 24 17 17 12 18 17 16 14 15 12 9 9 10 8 12 7 4 6 4 6
5 7 10 7 9 22 18 20 26 24 18 21 20 22 22 24 27 32 33 36 33 30 40 42 42 44 41 36 32 28 25 21 17 12 16 19 17 14 15 12 11 8 8 10 6 4 6 5 3
15 10 13 15 15 7 23 22 23 22 22 25 22 21 22 20 21 27 33 34 35 32 40 39 42 46 43 39 36 33 32 25 21 17 15 18 21 17 16 14 13 10 9 9 8 7 6 5 8
16 15 14 9 8 6 22 12 17 10 9 13 13 20 23 26 25 26 29 36 35 33 42 42 45 48 46 40 35 32 30 28 24 22 21 17 23 20 18 14 13 11 11 12 10 8 6 6 8
18 19 18 14 8 7 8 8 17 19 20 14 19 21 19 19 15 25 29 36 39 38 42 42 46 48 46 43 38 35 29 26 31 29 25 21 24 23 19 14 14 13 14 13 11 10 10 8 9
19 10 15 17 6 1 13 5 8 20 21 18 23 24 21 19 21 18 27 41 43 40 40 43 46 47 45 45 41 39 31 33 29 29 26 24 24 26 23 17 16 17 13 16 13 13 12 11 11
13 11 10 11 4 9 20 7 7 19 30 28 28 26 25 15 20 19 31 37 40 42 42 40 41 46 46 47 43 40 36 36 30 26 29 28 26 28 26 21 21 20 18 17 16 15 15 12 10
16 7 8 5 7 9 12 5 8 31 33 33 33 29 28 20 20 19 23 26 38 41 41 41 42 38 43 45 44 42 40 36 35 32 29 29 31 30 29 25 24 24 22 21 19 17 15 17 13
12 16 6 10 5 11 6 8 7 26 35 33 31 32 32 21 19 23 24 31 37 41 43 43 42 40 43 45 45 44 42 38 36 34 29 32 29 29 28 29 28 28 26 22 20 20 19 18 14
14 17 10 5 1 3 5 5 5 8 14 25 27 23 22 21 21 25 24 34 35 39 43 45 43 43 43 44 41 44 46 42 41 39 36 32 26 29 26 29 33 31 29 27 24 23 22 20 17
23 8 10 4 11 5 6 6 9 8 10 18 22 28 30 25 24 25 23 32 38 40 44 45 45 45 44 42 41 38 42 43 42 40 37 34 34 27 27 29 33 34 32 31 29 26 24 22 21
5 18 7 6 6 8 4 9 7 10 11 11 17 27 28 25 26 26 25 36 41 40 41 43 43 43 41 39 38 38 39 41 41 39 41 40 34 30 28 30 31 34 35 35 33 31 28 26 26
25 7 12 9 10 4 4 13 5 11 12 15 14 26 27 27 30 29 27 32 36 37 38 40 41 41 42 42 40 40 38 36 37 41 40 40 39 38 36 27 27 31 31 37 37 36 32 30 31
Wind_Direction
164 154 150 223 265 240 321 269 305 151 133 161 160 150 145 43 139 172 146 144 144 141 144 142 142 138 127 123 118 114 107 106 108 104 104 105 107 106 107 111 114 112 110 113 111 100 96 92 94
158 149 181 290 295 222 268 198 215 178 150 132 98 123 79 73 88 119 133 146 144 142 144 142 148 141 131 126 122 118 114 114 112 109 109 107 108 106 109 112 115 114 115 119 112 104 102 100 103
165 168 241 236 346 277 241 231 165 117 132 138 100 46 70 104 118 147 145 146 144 143 143 144 150 145 136 130 126 122 120 118 115 111 108 103 104 109 110 110 111 116 119 117 115 109 104 103 107
161 201 265 269 297 273 287 213 150 137 131 80 110 71 60 230 147 147 143 145 145 144 143 148 148 145 140 135 131 125 125 120 116 116 108 107 105 105 108 109 112 116 119 120 115 108 108 115 119
244 236 261 260 296 299 336 267 191 161 94 95 100 78 105 127 144 143 142 149 147 144 144 147 147 145 142 139 136 131 130 123 120 119 110 109 110 108 108 111 111 113 117 120 118 113 106 109 121
123 286 67 329 295 282 325 306 224 116 102 121 101 108 126 138 142 149 149 151 150 146 146 147 146 144 142 142 139 136 130 128 126 124 117 112 109 112 112 111 111 113 119 118 114 104 94 104 120
141 240 127 321 297 20 351 313 224 145 134 121 147 105 124 149 153 150 147 152 152 149 147 146 149 146 150 147 144 140 137 136 131 132 127 120 119 118 116 113 114 115 113 110 99 86 83 115 122
164 106 89 225 35 171 233 216 199 138 100 128 142 151 160 166 158 146 148 149 149 153 153 152 154 156 153 148 153 144 142 139 139 136 128 122 116 116 122 124 123 116 114 111 100 83 77 107 126
262 67 233 218 188 120 12 194 165 112 136 176 181 137 148 160 158 144 138 143 150 156 157 158 160 158 156 153 158 152 150 148 145 145 142 134 126 123 123 125 133 130 122 109 106 97 91 99 129
200 198 229 203 206 171 170 186 139 134 136 101 99 117 147 156 163 154 156 152 154 160 165 165 164 161 164 164 166 162 161 156 159 161 156 141 137 129 131 136 147 152 151 126 111 121 130 125 139
204 233 235 251 216 149 173 140 172 136 153 162 146 144 155 160 164 164 166 162 162 166 168 172 170 166 171 173 170 170 169 166 172 164 171 156 152 143 145 138 159 159 171 169 167 164 162 175 166
260 239 239 262 225 191 159 113 137 186 163 162 152 151 155 162 170 173 166 166 166 169 173 173 176 172 179 173 174 172 173 176 179 172 161 144 153 144 154 153 174 173 172 216 266 97 180 220 205
236 249 253 245 232 222 108 60 332 164 131 142 144 155 157 162 171 171 165 169 169 172 179 177 179 180 182 180 178 181 180 184 183 180 157 143 151 164 150 161 178 189 197 167 193 192 169 97 77
231 236 252 263 188 68 106 66 67 134 137 147 152 163 165 172 171 173 170 176 176 178 183 180 183 186 188 191 191 190 195 198 199 196 184 169 157 145 142 153 160 168 171 200 208 189 173 145 109
249 264 264 252 154 175 137 68 104 135 140 150 160 166 170 177 177 188 182 182 186 183 186 188 187 190 194 198 205 198 214 217 215 211 199 180 157 148 155 167 181 182 157 187 189 199 173 162 121
227 241 253 245 180 160 159 177 147 164 156 170 167 173 178 184 193 184 184 186 191 188 190 195 194 195 197 201 190 191 190 205 201 203 187 189 182 174 162 163 174 194 204 195 197 178 233 187 166
243 241 223 221 183 153 186 125 165 178 176 165 172 177 181 189 201 194 194 191 195 195 195 197 194 195 189 187 194 195 166 172 183 182 188 192 189 181 179 183 183 198 229 221 205 189 176 170 186
220 195 227 230 194 159 186 150 173 191 183 179 178 184 186 187 199 197 197 200 198 194 197 193 191 195 193 194 198 199 192 185 186 197 206 204 195 195 197 188 183 204 232 202 216 191 172 196 201
250 216 251 264 203 195 191 170 183 178 190 178 184 191 193 196 192 202 197 201 204 194 189 188 189 196 197 196 198 199 202 197 201 205 209 211 203 197 202 196 197 194 202 212 213 195 177 157 179
236 242 253 268 269 171 189 183 182 176 190 180 179 188 193 191 193 201 202 203 205 191 189 189 191 194 199 201 207 206 205 208 208 217 215 210 206 200 200 203 196 201 204 210 216 202 169 152 167
222 227 243 233 286 304 160 166 159 197 212 209 213 205 185 182 187 196 200 202 204 192 188 189 191 195 198 201 203 207 211 216 218 223 218 206 206 203 205 210 210 204 218 217 216 211 189 171 180
221 225 240 248 247 253 186 168 196 179 212 215 211 224 200 191 174 194 198 197 202 198 191 190 192 196 197 199 198 199 198 206 215 217 217 210 207 207 207 213 214 213 213 216 219 218 211 194 172
224 218 233 241 229 260 258 117 207 184 200 216 222 222 212 200 184 190 200 195 200 195 191 190 192 194 195 199 201 199 198 209 214 218 219 219 210 212 214 222 215 210 209 209 224 215 207 205 187
206 213 248 241 186 242 253 158 181 185 206 209 220 219 214 208 204 192 196 194 193 192 190 188 187 192 195 199 202 203 204 210 210 212 219 221 220 216 221 224 221 218 217 212 211 210 214 211 193
218 153 223 256 226 230 243 183 217 200 209 204 206 210 212 217 206 196 193 183 186 187 188 188 189 190 195 198 203 209 212 215 214 215 217 218 220 222 224 222 220 219 220 216 214 221 219 217 209
214 207 163 209 196 229 163 211 249 194 206 216 206 200 201 201 196 196 199 190 183 185 186 189 190 193 195 199 202 207 214 215 218 217 217 221 221 226 230 226 223 224 222 223 225 221 213 219 229
203 213 184 143 244 150 225 230 284 203 191 205 207 207 218 210 200 196 198 195 187 185 187 189 192 195 196 199 200 205 210 213 218 222 225 226 226 228 234 230 225 226 227 226 226 223 216 221 227
210 166 188 177 223 236 276 219 214 225 208 206 198 196 209 202 197 197 196 194 192 190 190 190 193 195 198 200 201 203 207 213 219 222 224 226 228 228 230 231 228 227 229 229 226 228 225 224 227
195 207 198 158 157 216 224 255 191 223 227 186 195 194 200 197 191 197 196 195 196 192 189 191 193 195 198 199 202 205 210 213 216 220 225 226 225 225 225 229 233 234 232 232 228 229 230 229 228
214 192 197 203 213 208 179 254 213 218 223 231 210 196 195 194 192 196 192 192 193 192 191 191 194 195 196 198 201 206 209 212 213 219 223 226 229 228 232 228 232 236 238 236 231 230 231 229 227